Regional Weather Roundup
Issued by NWS

Home | Current Version | Previous Version | Graphics & Text | Print | Product List | Glossary On
Versions: 1 2 3 4 5 6 7 8 9 10 11 12 13 14 15 16 17 18 19 20 21 22 23 24 25 26 27 28 29 30 31 32 33 34 35 36 37 38 39 40 41 42 43 44 45 46 47 48 49 50
312
ASUS43 KLOT 072208
RWRIL

ILLINOIS REGIONAL WEATHER ROUNDUP
NATIONAL WEATHER SERVICE CHICAGO/ROMEOVILLE IL
400 PM CST SUN FEB 07 2016

NOTE: "FAIR" INDICATES FEW OR NO CLOUDS BELOW 12,000 FEET WITH NO
SIGNIFICANT WEATHER AND/OR OBSTRUCTIONS TO VISIBILITY.

* THESE STATIONS ARE NOT UNDER NWS QUALITY CONTROL. THEY ALSO MAY NOT
  REPORT WEATHER SUCH AS PRECIPITATION OR FOG.

ILZ001-002-007-009-015-016-024-072300-
NORTHWEST ILLINOIS

CITY           SKY/WX    TMP DP  RH WIND       PRES   REMARKS
MOLINE         SUNNY     45  27  49 W15       29.80R
STERLING*      SUNNY     43  30  61 W22G29    29.75R
SAVANNA*       SUNNY     42  28  57 W15       29.77R
$$

ILZ003-004-008-010-011-017-018-072300-
NORTH CENTRAL ILLINOIS

CITY           SKY/WX    TMP DP  RH WIND       PRES   REMARKS
ROCKFORD       MOSUNNY   43  28  55 W13G23    29.75R
FREEPORT*      SUNNY     40  28  64 W17G25    29.76R
ROCHELLE*      SUNNY     42  31  65 W17G23    29.75R
DE KALB*       MOSUNNY   43  32  65 W16G23    29.74R
$$

ILZ005-006-012>014-019>023-072300-
NORTHEAST ILLINOIS

CITY           SKY/WX    TMP DP  RH WIND       PRES   REMARKS
CHICAGO-OHARE  CLOUDY    42  32  67 W15G23    29.72S
CHICAGO-MIDWAY CLOUDY    45  31  58 SW18G24   29.74S
AURORA         MOSUNNY   45  34  65 W18       29.74S
LANSING*       PTSUNNY   43  32  65 SW14G22   29.76R
JOLIET*        MOSUNNY   46  34  63 SW13      29.77R
WAUKEGAN       SUNNY     41  33  73 SW16      29.69S
DUPAGE AIRPORT MOSUNNY   43  33  68 SW15G21   29.73S
KANKAKEE*      PTSUNNY   43  33  65 SW13      29.79S
WHEELING       CLOUDY    43  32  65 SW12      29.73R
MORRIS*          N/A     45  33  64 W14       29.74S
ROMEOVILLE*    PTSUNNY   43  32  66 W15       29.75S
NORTHERLY ISL    N/A     44  30  58 W12         N/A
$$

LMZ740>746-072300-
SOUTHERN LAKE MICHIGAN

STATION/POSITION SKY/WX   TEMP    WIND        PRES    VSBY  WAVE
                          AIR SEA DIR/SP/G                  HT/PER
                          (F)     (DEG/KT/KT) (MB)    (MI)  (FT/S)
HARRISON CRIB              44     240/ 15/ 17   N/A
BURNHAM HARBOR             44     180/  4/ 16   N/A
CALUMET HARBOR             44     200/ 15/ 21 1006.3R
BURNS HARBOR               45     240/ 18/ 25 1007.8S
MICHIGAN CITY              44     200/ 22/ 26   N/A
$$

ILZ025>027-034>036-040-047-049-050-058-095>099-072300-
WEST-CENTRAL ILLINOIS

CITY           SKY/WX    TMP DP  RH WIND       PRES   REMARKS
QUINCY         MOSUNNY   49  23  36 NW13G24   29.86S
GALESBURG*     SUNNY     44  29  55 W17       29.82S
MACOMB*        SUNNY     46  29  51 NW15G24   29.86R
JACKSONVILLE*  MOSUNNY   51  32  48 W13       29.85F
PITTSFIELD*    MOSUNNY   51  28  42 W13       29.87F
$$

ILZ028>032-037-038-041>044-048-051>054-059>061-072300-
CENTRAL ILLINOIS

CITY           SKY/WX    TMP DP  RH WIND       PRES   REMARKS
PONTIAC        PTSUNNY   46  36  67 W16       29.80R
BLOOMINGTON    PTSUNNY   46  34  63 SW20G25   29.82R
DECATUR        PTSUNNY   47  31  53 W14G24    29.85R
PEORIA         SUNNY     47  28  47 W14G23    29.82R
LACON*         MOSUNNY   46  28  50 W14       29.80R
LINCOLN*       PTSUNNY   47  33  59 W6G16     29.85R
SPRINGFIELD    MOSUNNY   48  34  58 W14       29.86R
TAYLORVILLE    CLOUDY    46  34  61 W13       29.87R
$$

ILZ033-039-045-046-055>057-062-063-072300-
EAST-CENTRAL ILLINOIS

CITY           SKY/WX    TMP DP  RH WIND       PRES   REMARKS
CHAMPAIGN      CLOUDY    47  35  63 W20       29.83R
RANTOUL*       MOSUNNY   46  37  69 W13       29.82R
MATTOON        CLOUDY    49  31  49 W14G22    29.84R
PARIS*         CLOUDY    49  35  58 SW13G18   29.83F
$$

ILZ079-100>102-072300-
SOUTHWEST ILLINOIS

CITY           SKY/WX    TMP DP  RH WIND       PRES   REMARKS
ALTON          MOSUNNY   50  30  46 W15G22    29.90R
BELLEVILLE     CLOUDY    53  29  39 W12       29.88S
CAHOKIA*       MOSUNNY   54  28  36 W14G21    29.90S
SPARTA*        CLOUDY    53  30  40 W12G17    29.91S
$$

ILZ064>066-069>071-074>076-080>082-084>086-088>090-092>094-072300-
SOUTH-CENTRAL ILLINOIS

CITY           SKY/WX    TMP DP  RH WIND       PRES   REMARKS
CARBONDALE     CLOUDY    54  28  36 S12       29.90F
CAIRO*         MOSUNNY   54  37  52 SW8G18    29.94S
EFFINGHAM*     CLOUDY    51  33  49 SW14G24   29.88R
MARION         CLOUDY    55  30  38 SW14G21   29.91S
MT. VERNON     CLOUDY    54  28  37 SW14      29.88F
CENTRALIA*     PTSUNNY   53  35  49 W12       29.88R
SALEM*         PTSUNNY   53  31  43 W15       29.88R
METROPOLIS*    SUNNY     55  33  43 SW18G25   29.94F
$$

ILZ067-068-072-073-078-083-087-091-072300-
SOUTHEAST ILLINOIS

CITY           SKY/WX    TMP DP  RH WIND       PRES   REMARKS
LAWRENCEVILLE  CLOUDY    54  30  40 W20       29.87S
FLORA*         CLOUDY    55  30  39 SW13G18   29.87S
FAIRFIELD*     CLOUDY    54  31  41 SW13G20   29.87S
HARRISBURG*    MOSUNNY   54  32  43 SW10G16   29.91S
ROBINSON*      CLOUDY    52  30  42 SW13      29.87S
CARMI*         MOSUNNY   54  32  42 SW14G24   29.90R
$$

ABBREVIATIONS USED IN REMARKS
   TC - TEMPERATURE IN CELSIUS
  WCI - WIND CHILL INDEX
   HX - HEAT INDEX
  VSB - VISIBILITY
$$





USA.gov is the U.S. government's official web portal to all federal, state and local government web resources and services.